User: anonymous   Login
Location: Bittelbronn
(48.4454°N, 8.5870°E)
Time: 07:38:34
(UTC+00:00)
Language:

Cosmos 841 Rocket - Orbit

View from above orbital plane
View from above orbital plane
View from above satellite
View from above satellite

Ground track
Ground track

The orbit data is extracted from the following two-line orbital elements,

1 09023U 76069B   24196.92050064  .00000516  00000-0  17053-3 0  9991
2 09023  74.0437   4.7981 0018111 252.2198 107.6981 14.40440924516524
Epoch (UTC): 14 July 2024 22:05:31
Eccentricity: 0.0018111
inclination: 74.0437°
perigee height: 744 km
apogee height: 770 km
right ascension of ascending node: 4.7981°
argument of perigee: 252.2198°
revolutions per day: 14.40440924
mean anomaly at epoch: 107.6981°
orbit number at epoch: 51652

The dashed part of the orbit path shows where the satellite is in the earth's shadow,  

DLR